Location: Larch Mountain
(45.5297°N, 122.0872°W)
Time: 06:03:34
(UTC-07:00)

ISS - All Passes

Search period start: 22 May 2015 00:00
Search period end: 01 June 2015 00:00
Orbit: 399 x 404 km, 51.6° (Epoch: 22 May)

Date Brightness Start Highest point End Pass type
(mag) Time Alt. Az. Time Alt. Az. Time Alt. Az.
22 May - 02:07:29 10° SSW 02:10:32 39° SE 02:13:37 10° ENE visible
22 May - 03:43:50 10° W 03:46:57 42° NNW 03:50:06 10° NE visible
22 May - 05:21:03 10° WNW 05:23:54 26° N 05:26:45 10° ENE daylight
22 May - 06:57:37 10° NW 07:00:48 48° NNE 07:04:00 10° E daylight
22 May - 08:34:11 10° WNW 08:37:09 31° SW 08:40:05 10° SSE daylight
23 May - 01:14:54 10° S 01:17:28 22° SE 01:20:07 10° E visible
23 May - 02:50:27 10° WSW 02:53:40 62° NNW 02:56:56 10° ENE visible
23 May - 04:27:38 10° WNW 04:30:31 27° N 04:33:23 10° NE visible
23 May - 06:04:26 10° NW 06:07:30 35° NNE 06:10:33 10° E daylight
23 May - 07:40:49 10° WNW 07:44:02 56° SW 07:47:15 10° SE daylight
24 May - 00:23:02 10° SSE 00:24:27 12° SE 00:25:58 10° ESE night (unlit)
24 May - 01:57:11 10° WSW 02:00:26 81° SSE 02:03:43 10° ENE visible
24 May - 03:34:09 10° WNW 03:37:06 31° NNW 03:40:05 10° NE visible
24 May - 05:11:11 10° NW 05:14:06 29° N 05:17:02 10° ENE daylight
24 May - 06:47:33 10° WNW 06:50:50 84° NNE 06:54:07 10° ESE daylight
24 May - 08:24:50 10° W 08:26:54 16° SW 08:28:54 10° S daylight
25 May - 01:04:07 10° SW 01:07:14 45° SE 01:10:23 10° ENE visible
25 May - 02:40:37 10° W 02:43:42 39° NNW 02:46:48 10° NE visible
25 May - 04:17:49 10° WNW 04:20:40 27° N 04:23:31 10° ENE visible
25 May - 05:54:19 10° NW 05:57:32 53° NNE 06:00:45 10° ESE daylight
25 May - 07:30:58 10° W 07:33:49 27° SW 07:36:38 10° SSE daylight
26 May - 00:11:21 10° SSW 00:14:05 25° SE 00:16:51 10° E visible
26 May - 01:47:07 10° WSW 01:50:20 55° NNW 01:53:33 10° ENE visible
26 May - 03:24:20 10° WNW 03:27:11 27° N 03:30:02 10° ENE visible
26 May - 05:01:04 10° NW 05:04:09 38° NNE 05:07:14 10° E daylight
26 May - 06:37:28 10° WNW 06:40:38 49° SW 06:43:48 10° SE daylight
26 May - 23:19:08 10° S 23:20:57 14° SE 23:22:51 10° E night (unlit)
27 May - 00:53:44 10° WSW 00:56:59 88° NW 01:00:16 10° ENE visible
27 May - 02:30:45 10° WNW 02:33:41 30° N 02:36:38 10° NE visible
27 May - 04:07:44 10° NW 04:10:41 30° N 04:13:38 10° ENE visible
27 May - 05:44:05 10° WNW 05:47:23 86° SSW 05:50:38 10° ESE daylight
27 May - 07:21:38 10° WSW 07:23:22 13° SW 07:25:01 10° SSW daylight
28 May - 00:00:31 10° SW 00:03:41 52° SE 00:06:52 10° ENE visible
28 May - 01:37:09 10° W 01:40:12 36° NNW 01:43:16 10° NE visible
28 May - 03:14:19 10° WNW 03:17:09 27° N 03:20:01 10° ENE visible
28 May - 04:50:46 10° WNW 04:54:00 58° NNE 04:57:14 10° ESE visible
28 May - 06:27:30 10° W 06:30:13 24° SW 06:32:54 10° SSE daylight
28 May - 23:07:34 10° SSW 23:10:25 29° SE 23:13:19 10° ENE visible
29 May - 00:43:32 10° W 00:46:43 50° NNW 00:49:55 10° NE visible
29 May - 02:20:46 10° WNW 02:23:36 26° N 02:26:26 10° ENE visible
29 May - 03:57:26 10° NW 04:00:33 40° NNE 04:03:39 10° E visible
29 May - 05:33:51 10° WNW 05:36:58 42° SW 05:40:04 10° SE daylight
29 May - 22:15:06 10° S 22:17:12 16° SE 22:19:23 10° E visible
29 May - 23:50:01 10° WSW 23:53:16 79° NNW 23:56:33 10° ENE visible
30 May - 01:27:07 10° WNW 01:30:00 29° N 01:32:55 10° NE visible
30 May - 03:04:01 10° NW 03:07:00 31° NNE 03:09:59 10° ENE visible
30 May - 04:40:22 10° WNW 04:43:38 77° SSW 04:46:53 10° SE visible
30 May - 06:18:18 10° WSW 06:19:35 12° SW 06:20:46 10° SSW daylight
30 May - 22:56:41 10° SW 22:59:53 60° SE 23:03:06 10° ENE visible
31 May - 00:33:24 10° W 00:36:26 34° NNW 00:39:28 10° NE visible
31 May - 02:10:32 10° NW 02:13:24 27° N 02:16:16 10° ENE visible
31 May - 03:46:57 10° WNW 03:50:12 65° NNE 03:53:26 10° ESE visible
31 May - 05:23:49 10° W 05:26:22 21° SW 05:28:52 10° S daylight
31 May - 22:03:34 10° SSW 22:06:31 33° SE 22:09:30 10° ENE visible
31 May - 23:39:42 10° W 23:42:51 46° NNW 23:46:01 10° NE visible
